カタログに戻る

CZ-6A DEB

運用中SSO
NORAD 54619·DEBRIS·🇨🇳 China

打ち上げ Nov 11, 2022 から Taiyuan Satellite Launch Center

Loading…

次のパス (今後24時間)

TLE

最新Source: Space-Track

元期: Sep 14, 2026, 22:04 UTC

1 54619U 22151NV  26257.91965143  .00001022  00000-0  32891-3 0  9997
2 54619  98.7889 322.4577 0070786 125.1418 235.6429 14.40084173200034

AllMySatでCZ-6A DEBをリアルタイム追跡

Download on the App Store